Houston, TX

8:59 PM CDT on March 24, 2017 (GMT -0500)
Hobby

Weather History for KHOU - May, 2012

Change the Weather History Date:

Thursday, May 3, 2012

  Actual Average Record
Temperature  
Mean Temperature 80 °F 74 °F  
Max Temperature 89 °F 83 °F 93 °F (1890)
Min Temperature 71 °F 64 °F 47 °F (1978)
Cooling Degree Days 15 9  
Month to date cooling degree days 44 26  
Year to date cooling degree days 568 307  
Growing Degree Days 29 (Base 50)    
Moisture  
Dew Point 70 °F    
Average Humidity 72    
Maximum Humidity 93    
Minimum Humidity 50    
Precipitation  
Precipitation 0.00 in 0.16 in 5.10 in (1981)
Month to date precipitation 0.00 0.46  
Year to date precipitation 21.47 13.76  
Sea Level Pressure  
Sea Level Pressure 29.94 in    
Wind  
Wind Speed 4 mph (SSE)    
Max Wind Speed 17 mph    
Max Gust Speed 22 mph    
Visibility 10 miles    
Events      
T = Trace of Precipitation, MM = Missing Value Source: NWS Daily Summary

Daily Weather History Graph

Daily Weather History Graph

Search for Another Location

Airport or City:

Trip Planner

Search our weather history database for the weather conditions in past years. The results will help you decide how hot, cold, wet, or windy it might be!

Date:

Astronomy

May. 03, 2012 Rise Set
Actual Time 6:36 AM CDT 7:59 PM CDT
Civil Twilight 6:11 AM CDT 8:25 PM CDT
Nautical Twilight 5:41 AM CDT 8:55 PM CDT
Astronomical Twilight 5:09 AM CDT 9:26 PM CDT
Moon 5:33 PM CDT (5/3) 4:29 AM CDT (5/3)
Length of Visible Light 14h 13m
Length of Day
13h 22m
Waxing Gibbous, 91% of the Moon is Illuminated
May 3
Waxing Gibbous
May 5
Full
May 12
Last Quarter
May 20
New
May 28
First Quarter

Hourly Weather History & Observations

Time (CDT) Temp. Heat Index Dew Point Humidity Pressure Visibility Wind Dir Wind Speed Gust Speed Precip Events Conditions
12:53 AM 73.0 °F - 70.0 °F 90% 29.93 in 10.0 mi Calm Calm - N/A   Mostly Cloudy
1:53 AM 73.0 °F - 70.0 °F 90% 29.90 in 10.0 mi SSW 3.5 mph - N/A   Scattered Clouds
2:53 AM 72.0 °F - 70.0 °F 93% 29.89 in 10.0 mi SW 4.6 mph - N/A   Scattered Clouds
3:53 AM 71.1 °F - 69.1 °F 93% 29.89 in 10.0 mi Calm Calm - N/A   Scattered Clouds
4:04 AM 71.6 °F - 69.8 °F 94% 29.88 in 10.0 mi Calm Calm - N/A   Mostly Cloudy
4:21 AM 71.6 °F - 69.8 °F 94% 29.89 in 10.0 mi Calm Calm - N/A   Mostly Cloudy
4:23 AM 71.6 °F - 69.8 °F 94% 29.89 in 10.0 mi Calm Calm - N/A   Mostly Cloudy
4:53 AM 71.1 °F - 69.1 °F 93% 29.91 in 10.0 mi Calm Calm - N/A   Scattered Clouds
5:53 AM 71.1 °F - 69.1 °F 93% 29.92 in 9.0 mi SE 3.5 mph - N/A   Scattered Clouds
6:53 AM 70.0 °F - 69.1 °F 97% 29.94 in 9.0 mi SE 3.5 mph - N/A   Scattered Clouds
7:53 AM 73.9 °F - 71.1 °F 91% 29.96 in 10.0 mi SE 3.5 mph - 0.01 in   Scattered Clouds
8:33 AM 75.2 °F - 71.6 °F 89% 29.96 in 10.0 mi SSE 5.8 mph - N/A   Scattered Clouds
8:53 AM 77.0 °F - 72.0 °F 84% 29.98 in 10.0 mi South 8.1 mph - N/A   Scattered Clouds
9:53 AM 80.1 °F 83.2 °F 70.0 °F 71% 29.99 in 10.0 mi South 8.1 mph - N/A   Scattered Clouds
10:53 AM 82.9 °F 86.5 °F 69.1 °F 63% 30.00 in 10.0 mi South 6.9 mph - N/A   Scattered Clouds
11:53 AM 84.9 °F 88.2 °F 68.0 °F 57% 29.99 in 10.0 mi SSE 6.9 mph - N/A   Scattered Clouds
12:53 PM 87.1 °F 90.6 °F 68.0 °F 53% 29.97 in 10.0 mi SSE 9.2 mph - N/A   Scattered Clouds
1:53 PM 88.0 °F 92.1 °F 69.1 °F 53% 29.96 in 10.0 mi SSE 8.1 mph - N/A   Scattered Clouds
2:53 PM 87.8 °F 92.6 °F 69.8 °F 55% 29.94 in 10.0 mi South 9.2 mph - N/A   Scattered Clouds
3:53 PM 86.0 °F 90.1 °F 69.1 °F 57% 29.94 in 10.0 mi SSE 9.2 mph - N/A   Mostly Cloudy
4:53 PM 87.1 °F 91.3 °F 69.1 °F 55% 29.93 in 10.0 mi South 10.4 mph - N/A   Mostly Cloudy
5:53 PM 84.0 °F 88.4 °F 70.0 °F 63% 29.93 in 10.0 mi SSE 11.5 mph - N/A   Scattered Clouds
6:53 PM 82.0 °F 84.5 °F 66.9 °F 60% 29.92 in 10.0 mi SE 11.5 mph 18.4 mph N/A   Mostly Cloudy
7:53 PM 79.0 °F - 69.1 °F 72% 29.94 in 10.0 mi SSE 10.4 mph - N/A   Mostly Cloudy
8:53 PM 77.0 °F - 69.1 °F 76% 29.97 in 10.0 mi SSE 8.1 mph - N/A   Scattered Clouds
9:53 PM 75.0 °F - 70.0 °F 84% 29.98 in 10.0 mi SSE 5.8 mph - N/A   Scattered Clouds
10:53 PM 73.9 °F - 70.0 °F 87% 30.01 in 10.0 mi South 4.6 mph - N/A   Mostly Cloudy
11:53 PM 75.0 °F - 70.0 °F 84% 30.01 in 10.0 mi South 5.8 mph - N/A   Mostly Cloudy